Hourly Data Report for September 28, 2022

RANKIN INLET A
NUNAVUT
Current Station Operator: NAVCAN

62°48'38.000" N
92°06'53.000" W
32.30 m
2303405
71083
YRT

Download Data

Hourly Data (September 2022)
Hourly Data Report for September 28, 2022
TIME
LST
Temp Definition
°C
Dew Point Definition
°C
Rel Hum Definition
%
Precip. Amount Definition
mm

Wind Dir Definition
10's deg

Wind Spd Definition
km/h
Visibility Definition
km
Stn Press Definition
kPa
Hmdx Definition


Wind Chill Definition


Weather Definition


00:00 4.9 4.1 95   17 49 16.1 100.56     Rain
01:00 4.8 4.4 97   18 52 2.4 100.42     Heavy Rain, Fog
02:00 4.9 4.4 97   17 53 3.2 100.22     Moderate Rain, Fog
03:00 5.2 4.8 97   16 52 3.2 100.06     Rain, Fog
04:00 5.8 5.1 96   17 45 3.2 99.91     Fog
05:00 6.3 5.3 93   17 41 2.4 99.79     Fog
06:00 6.3 5.5 94   17 36 8.1 99.66     Fog
07:00 6.2 5.6 96   18 26 9.7 99.61     Fog
08:00 6.6 5.9 96   19 23 9.7 99.58     Fog
09:00 7.0 6.4 96   19 15 9.7 99.50     Fog
10:00 8.0 7.0 94   23 17 9.7 99.53     Fog
11:00 8.2 7.0 92   29 26 24.1 99.54     LegendNANA
12:00 7.3 6.5 95   30 32 24.1 99.59     Mostly Cloudy
13:00 7.3 6.8 96   32 31 16.1 99.63     LegendNANA
14:00 7.3 6.1 92   33 39 24.1 99.73     LegendNANA
15:00 7.3 5.5 88   33 40 24.1 99.80     Cloudy
16:00 6.3 5.0 91   32 39 24.1 99.84     LegendNANA
17:00 5.8 4.3 90   31 35 24.1 99.91     LegendNANA
18:00 5.6 4.0 89   31 33 24.1 99.97     Cloudy
19:00 5.6 3.8 88   31 31 24.1 100.01     LegendNANA
20:00 5.1 3.3 88   32 27 24.1 100.08     LegendNANA
21:00 5.0 3.3 89   32 18 24.1 100.04     Cloudy
22:00 4.5 3.4 93   28 17 24.1 100.06     LegendNANA
23:00 4.3 3.3 93   29 23 24.1 100.05     LegendNANA

Notes on Data Quality.

Legend

  • E = Estimated
  • M = Missing
  • NA = Not Available*
  • [empty] = Indicates an unobserved value
Date modified: